Simultaneous Nadir Overpasses (SNOs) Predictions

Prediction of SNOs between GOES-16 and NOAA-20 Satellite Orbit:

Table of predicted SNOs for the next 14.0 days since TLE Epoch: 7/4/2025
Index Date Time (GOES-16) GOES-16 Lat,Lon NOAA-20 Lat,Lon Distance(km) Time Diff (sec)
1 07/04/2025 20:39:08 -0.02,-104.73 -0.94,-108.97 482.85 80
2 07/05/2025 20:23:06 -0.01,-104.73 0.07,-104.45 32.59 80
3 07/08/2025 08:26:15 -0.01,-104.72 0.08,-105.21 55.36 80
4 07/09/2025 08:04:52 -0.01,-104.71 -0.93,-100.68 459.74 80
5 07/10/2025 20:26:51 0.01,-104.71 -0.26,-106.00 145.76 80
6 07/11/2025 20:10:49 0.01,-104.71 0.76,-101.47 369.62 80
7 07/13/2025 08:32:39 -0.01,-104.70 0.46,-106.75 232.94 80
8 07/14/2025 08:11:17 -0.01,-104.70 -0.56,-102.22 282.38 80
9 07/15/2025 20:33:16 0.01,-104.70 -0.64,-107.54 323.14 80
10 07/16/2025 20:17:14 0.01,-104.70 0.39,-103.01 192.39 80
11 07/18/2025 08:39:04 -0.00,-104.70 0.82,-108.29 409.81 80
